When you browse on this site, cookies collect data to enhance your experience and personalize the content and advertising you see.
Visit our Privacy Policy to learn more. By continuing to use the site, you agree to this use of cookies and data.
  • în România
  • Lista ţărilor
  • Pe 7 zile
  • Temperatura apei
  • Meteo pe hartă
  • Widget-uri
  • user-avatar
    Intrare

    Meteo pe oră la Ramadi

    Astăzi, 24 August, Sâmbătă

    Timp Temperatura Precipitaţii Vânt Presiune Umiditate
    00:00 +36°C° 0 mm 3 m/s 748 mmHg 23%
    01:00 +35°C° 0 mm 3 m/s 748 mmHg 23%
    02:00 +35°C° 0 mm 3 m/s 748 mmHg 23%
    03:00 +34°C° 0 mm 3 m/s 748 mmHg 24%
    04:00 +33°C° 0 mm 3 m/s 748 mmHg 25%
    05:00 +32°C° 0 mm 2 m/s 749 mmHg 26%
    06:00 +31°C° 0 mm 1 m/s 749 mmHg 26%
    07:00 +34°C° 0 mm 1 m/s 750 mmHg 22%
    08:00 +37°C° 0 mm 1 m/s 750 mmHg 18%
    09:00 +41°C° 0 mm 1 m/s 750 mmHg 15%
    10:00 +42°C° 0 mm 1 m/s 750 mmHg 13%
    11:00 +44°C° 0 mm 1 m/s 750 mmHg 12%
    12:00 +45°C° 0 mm 1 m/s 749 mmHg 11%
    13:00 +46°C° 0 mm 1 m/s 749 mmHg 11%
    14:00 +47°C° 0 mm 1 m/s 748 mmHg 10%
    15:00 +48°C° 0 mm 1 m/s 748 mmHg 10%
    16:00 +47°C° 0 mm 1 m/s 748 mmHg 11%
    17:00 +46°C° 0 mm 2 m/s 747 mmHg 12%
    18:00 +45°C° 0 mm 2 m/s 747 mmHg 13%
    19:00 +43°C° 0 mm 2 m/s 747 mmHg 14%
    20:00 +41°C° 0 mm 2 m/s 747 mmHg 15%
    21:00 +39°C° 0 mm 3 m/s 747 mmHg 17%
    22:00 +39°C° 0 mm 2 m/s 747 mmHg 17%
    23:00 +39°C° 0 mm 2 m/s 747 mmHg 17%

    Mâine, 25 August, Duminică

    Timp Temperatura Precipitaţii Vânt Presiune Umiditate
    00:00 +38°C° 0 mm 2 m/s 747 mmHg 17%
    01:00 +37°C° 0 mm 2 m/s 747 mmHg 18%
    02:00 +37°C° 0 mm 2 m/s 747 mmHg 19%
    03:00 +36°C° 0 mm 2 m/s 747 mmHg 19%
    04:00 +34°C° 0 mm 1 m/s 747 mmHg 21%
    05:00 +33°C° 0 mm 1 m/s 747 mmHg 22%
    06:00 +30°C° 0 mm 0 m/s 747 mmHg 23%
    07:00 +34°C° 0 mm 0 m/s 747 mmHg 20%
    08:00 +37°C° 0 mm 0 m/s 748 mmHg 17%
    09:00 +40°C° 0 mm 0 m/s 748 mmHg 13%
    10:00 +45°C° 0 mm 1 m/s 748 mmHg 12%
    11:00 +47°C° 0 mm 2 m/s 748 mmHg 11%
    12:00 +49°C° 0 mm 2 m/s 747 mmHg 10%
    13:00 +50°C° 0 mm 2 m/s 747 mmHg 9%
    14:00 +51°C° 0 mm 2 m/s 746 mmHg 9%
    15:00 +51°C° 0 mm 2 m/s 746 mmHg 8%
    16:00 +50°C° 0 mm 2 m/s 746 mmHg 9%
    17:00 +48°C° 0 mm 2 m/s 745 mmHg 9%
    18:00 +46°C° 0 mm 1 m/s 745 mmHg 10%
    19:00 +45°C° 0 mm 2 m/s 746 mmHg 11%
    20:00 +42°C° 0 mm 2 m/s 746 mmHg 12%
    21:00 +40°C° 0 mm 3 m/s 746 mmHg 13%
    22:00 +40°C° 0 mm 3 m/s 746 mmHg 13%
    23:00 +41°C° 0 mm 4 m/s 746 mmHg 13%

    Poimâine, 26 August, Luni

    Timp Temperatura Precipitaţii Vânt Presiune Umiditate
    00:00 +41°C° 0 mm 5 m/s 746 mmHg 13%
    01:00 +40°C° 0 mm 5 m/s 746 mmHg 15%
    02:00 +40°C° 0 mm 5 m/s 746 mmHg 18%
    03:00 +39°C° 0 mm 5 m/s 746 mmHg 20%
    04:00 +37°C° 0 mm 4 m/s 746 mmHg 20%
    05:00 +37°C° 0 mm 4 m/s 747 mmHg 21%
    06:00 +36°C° 0 mm 4 m/s 747 mmHg 21%
    07:00 +38°C° 0 mm 4 m/s 747 mmHg 19%
    08:00 +41°C° 0 mm 4 m/s 748 mmHg 16%
    09:00 +43°C° 0 mm 4 m/s 748 mmHg 13%
    10:00 +45°C° 0 mm 4 m/s 748 mmHg 12%
    11:00 +47°C° 0 mm 3 m/s 748 mmHg 10%
    12:00 +50°C° 0 mm 3 m/s 747 mmHg 9%
    13:00 +51°C° 0 mm 3 m/s 747 mmHg 9%
    14:00 +52°C° 0 mm 3 m/s 746 mmHg 8%
    15:00 +52°C° 0 mm 3 m/s 746 mmHg 8%
    16:00 +51°C° 0 mm 3 m/s 746 mmHg 8%
    17:00 +50°C° 0 mm 3 m/s 746 mmHg 9%
    18:00 +48°C° 0 mm 3 m/s 746 mmHg 9%
    19:00 +46°C° 0 mm 3 m/s 746 mmHg 10%
    20:00 +44°C° 0 mm 3 m/s 747 mmHg 11%
    21:00 +42°C° 0 mm 3 m/s 747 mmHg 12%
    22:00 +42°C° 0 mm 3 m/s 747 mmHg 15%
    23:00 +41°C° 0 mm 4 m/s 747 mmHg 17%

    27 August, Marţi

    Timp Temperatura Precipitaţii Vânt Presiune Umiditate
    00:00 +40°C° 0 mm 5 m/s 747 mmHg 20%
    01:00 +40°C° 0 mm 4 m/s 747 mmHg 21%
    02:00 +38°C° 0 mm 4 m/s 746 mmHg 23%
    03:00 +37°C° 0 mm 4 m/s 746 mmHg 24%
    04:00 +36°C° 0 mm 4 m/s 747 mmHg 26%
    05:00 +36°C° 0 mm 4 m/s 747 mmHg 27%
    06:00 +35°C° 0 mm 3 m/s 747 mmHg 28%
    07:00 +37°C° 0 mm 4 m/s 747 mmHg 24%
    08:00 +41°C° 0 mm 4 m/s 747 mmHg 20%
    09:00 +43°C° 0 mm 4 m/s 748 mmHg 16%
    10:00 +45°C° 0 mm 4 m/s 748 mmHg 14%
    11:00 +48°C° 0 mm 4 m/s 747 mmHg 12%
    12:00 +50°C° 0 mm 4 m/s 747 mmHg 11%
    13:00 +50°C° 0 mm 4 m/s 747 mmHg 10%
    14:00 +51°C° 0 mm 3 m/s 746 mmHg 9%
    15:00 +52°C° 0 mm 3 m/s 746 mmHg 9%
    16:00 +51°C° 0 mm 3 m/s 746 mmHg 9%
    17:00 +48°C° 0 mm 3 m/s 746 mmHg 10%
    18:00 +47°C° 0 mm 2 m/s 745 mmHg 10%
    19:00 +46°C° 0 mm 3 m/s 746 mmHg 12%
    20:00 +44°C° 0 mm 3 m/s 746 mmHg 13%
    21:00 +42°C° 0 mm 3 m/s 746 mmHg 14%
    22:00 +41°C° 0 mm 4 m/s 746 mmHg 17%
    23:00 +41°C° 0 mm 5 m/s 746 mmHg 21%

    28 August, Miercuri

    Timp Temperatura Precipitaţii Vânt Presiune Umiditate
    00:00 +40°C° 0 mm 6 m/s 746 mmHg 24%
    01:00 +39°C° 0 mm 5 m/s 746 mmHg 25%
    02:00 +37°C° 0 mm 5 m/s 746 mmHg 26%
    03:00 +37°C° 0 mm 4 m/s 746 mmHg 27%
    04:00 +36°C° 0 mm 4 m/s 746 mmHg 27%
    05:00 +36°C° 0 mm 4 m/s 747 mmHg 28%
    06:00 +35°C° 0 mm 4 m/s 747 mmHg 29%
    07:00 +38°C° 0 mm 4 m/s 747 mmHg 24%
    08:00 +41°C° 0 mm 4 m/s 747 mmHg 19%
    09:00 +43°C° 0 mm 4 m/s 747 mmHg 14%
    10:00 +45°C° 0 mm 4 m/s 747 mmHg 13%
    11:00 +46°C° 0 mm 3 m/s 747 mmHg 12%
    12:00 +48°C° 0 mm 3 m/s 747 mmHg 11%
    13:00 +50°C° 0 mm 3 m/s 746 mmHg 10%
    14:00 +50°C° 0 mm 3 m/s 746 mmHg 10%
    15:00 +50°C° 0 mm 2 m/s 746 mmHg 9%
    16:00 +50°C° 0 mm 3 m/s 745 mmHg 10%
    17:00 +48°C° 0 mm 3 m/s 745 mmHg 10%
    18:00 +47°C° 0 mm 3 m/s 745 mmHg 11%
    19:00 +45°C° 0 mm 3 m/s 745 mmHg 12%
    20:00 +43°C° 0 mm 3 m/s 746 mmHg 13%
    21:00 +42°C° 0 mm 3 m/s 746 mmHg 14%
    22:00 +40°C° 0 mm 3 m/s 746 mmHg 16%
    23:00 +41°C° 0 mm 4 m/s 746 mmHg 19%

    29 August, Joi

    Timp Temperatura Precipitaţii Vânt Presiune Umiditate
    00:00 +40°C° 0 mm 5 m/s 746 mmHg 21%
    01:00 +39°C° 0 mm 5 m/s 746 mmHg 22%
    02:00 +38°C° 0 mm 4 m/s 746 mmHg 23%
    03:00 +37°C° 0 mm 4 m/s 746 mmHg 24%
    04:00 +37°C° 0 mm 4 m/s 746 mmHg 23%
    05:00 +37°C° 0 mm 4 m/s 747 mmHg 21%
    06:00 +37°C° 0 mm 4 m/s 747 mmHg 20%
    07:00 +41°C° 0 mm 4 m/s 747 mmHg 17%
    08:00 +44°C° 0 mm 3 m/s 747 mmHg 14%
    09:00 +47°C° 0 mm 3 m/s 747 mmHg 11%
    10:00 +48°C° 0 mm 3 m/s 747 mmHg 10%
    11:00 +50°C° 0 mm 2 m/s 747 mmHg 9%
    12:00 +51°C° 0 mm 2 m/s 747 mmHg 8%
    13:00 +51°C° 0 mm 2 m/s 746 mmHg 8%
    14:00 +52°C° 0 mm 2 m/s 746 mmHg 8%
    15:00 +52°C° 0 mm 2 m/s 745 mmHg 7%
    16:00 +51°C° 0 mm 2 m/s 745 mmHg 8%
    17:00 +49°C° 0 mm 2 m/s 745 mmHg 9%
    18:00 +47°C° 0 mm 2 m/s 744 mmHg 10%
    19:00 +46°C° 0 mm 2 m/s 745 mmHg 10%
    20:00 +45°C° 0 mm 3 m/s 745 mmHg 10%
    21:00 +44°C° 0 mm 4 m/s 745 mmHg 11%
    22:00 +43°C° 0 mm 3 m/s 745 mmHg 12%
    23:00 +42°C° 0 mm 3 m/s 745 mmHg 12%
    Arată mai mult